FW9423 Weather Reports


Display with metric or nautical units.
time (UTC)temp
F
wind
direction
speed
MPH
gust
MPH
rain 1hr
in
rain 24hr
in
rain mn
in
humidity
%
barometer
mb
20260508052040 66 360 7.0 15.0 0.00 0.00 0.00 40 1030.2
20260508051548 67 360 8.0 15.0 0.00 0.00 0.00 38 1030.2
20260508051042 67 360 7.0 15.0 0.00 0.00 0.00 39 1030.3
20260508050542 67 360 6.0 13.0 0.00 0.00 0.00 41 1030.3
20260508050053 67 360 8.0 13.0 0.00 0.00 0.00 41 1030.4
20260508045540 67 360 7.0 15.0 0.00 0.00 0.00 41 1030.6
20260508045043 67 360 9.0 15.0 0.00 0.00 0.00 41 1030.7
20260508044558 66 360 9.0 15.0 0.00 0.00 0.00 42 1030.7
20260508044046 66 360 9.0 15.0 0.00 0.00 0.00 42 1030.9
20260508043541 66 360 6.0 14.0 0.00 0.00 0.00 42 1030.9
20260508043047 66 360 6.0 14.0 0.00 0.00 0.00 43 1031.0
20260508042541 66 360 9.0 14.0 0.00 0.00 0.00 42 1031.0
20260508042041 66 360 8.0 14.0 0.00 0.00 0.00 43 1031.1
20260508041557 66 360 8.0 14.0 0.00 0.00 0.00 43 1031.3
20260508041042 66 360 7.0 13.0 0.00 0.00 0.00 43 1031.3
20260508040542 65 360 6.0 15.0 0.00 0.00 0.00 43 1031.4
20260508040059 65 360 7.0 15.0 0.00 0.00 0.00 44 1031.5
20260508035542 65 360 9.0 15.0 0.00 0.00 0.00 44 1031.5
20260508035042 65 360 7.0 16.0 0.00 0.00 0.00 44 1031.6
20260508034557 65 360 7.0 16.0 0.00 0.00 0.00 45 1031.8
20260508034042 65 360 5.0 13.0 0.00 0.00 0.00 44 1031.9
20260508033544 65 360 7.0 14.0 0.00 0.00 0.00 45 1032.0
20260508033113 65 360 8.0 15.0 0.00 0.00 0.00 45 1032.1
20260508032544 65 360 7.0 15.0 0.00 0.00 0.00 45 1032.2
20260508032042 64 360 7.0 15.0 0.00 0.00 0.00 45 1032.3
20260508031549 64 360 9.0 15.0 0.00 0.00 0.00 46 1032.4
20260508031046 64 360 8.0 15.0 0.00 0.00 0.00 46 1032.5
20260508030541 64 360 8.0 14.0 0.00 0.00 0.00 46 1032.6
20260508030106 64 360 8.0 17.0 0.00 0.00 0.00 47 1032.7
20260508025542 64 360 7.0 17.0 0.00 0.00 0.00 47 1032.9
20260508025042 64 360 9.0 15.0 0.00 0.00 0.00 46 1033.0
20260508024613 64 360 8.0 15.0 0.00 0.00 0.00 47 1033.1
20260508024046 64 360 6.0 13.0 0.00 0.00 0.00 48 1033.0
20260508023542 64 360 5.0 13.0 0.00 0.00 0.00 47 1033.2
20260508023051 63 360 8.0 14.0 0.00 0.00 0.00 48 1033.2
20260508022541 63 360 6.0 14.0 0.00 0.00 0.00 49 1033.3
20260508022041 62 360 8.0 14.0 0.00 0.00 0.00 50 1033.3
20260508021551 62 360 8.0 14.0 0.00 0.00 0.00 50 1033.4
20260508021041 62 360 9.0 19.0 0.00 0.00 0.00 51 1033.5
20260508020541 62 360 8.0 19.0 0.00 0.00 0.00 51 1033.5
20260508015541 62 360 9.0 15.0 0.00 0.00 0.00 52 1033.7
20260508015044 62 360 9.0 15.0 0.00 0.00 0.00 52 1033.8
20260508014600 62 360 8.0 14.0 0.00 0.00 0.00 53 1034.0
20260508014043 61 360 9.0 16.0 0.00 0.00 0.00 53 1034.0
20260508013541 61 360 10.0 17.0 0.00 0.00 0.00 54 1034.1
20260508013105 61 360 10.0 17.0 0.00 0.00 0.00 54 1034.1
20260508012541 60 360 10.0 17.0 0.00 0.00 0.00 54 1034.3
20260508012043 61 360 7.0 15.0 0.00 0.00 0.00 54 1034.2
20260508011559 60 360 9.0 16.0 0.00 0.00 0.00 56 1034.3
20260508011045 60 360 9.0 19.0 0.00 0.00 0.00 56 1034.3
20260508010540 59 360 10.0 19.0 0.00 0.00 0.00 56 1034.3
20260508010046 59 360 9.0 19.0 0.00 0.00 0.00 57 1034.3
20260508005541 59 360 11.0 19.0 0.00 0.00 0.00 57 1034.4
20260508005042 59 360 9.0 16.0 0.00 0.00 0.00 58 1034.3
20260508004551 59 360 9.0 16.0 0.00 0.00 0.00 58 1034.3
20260508004042 58 360 9.0 17.0 0.00 0.00 0.00 59 1034.2
20260508003543 58 360 9.0 19.0 0.00 0.00 0.00 59 1034.1
20260508003048 58 360 6.0 19.0 0.00 0.00 0.00 60 1034.1
20260508002542 57 360 10.0 19.0 0.00 0.00 0.00 60 1034.1
20260508002042 57 360 8.0 15.0 0.00 0.00 0.00 61 1034.1
20260508001556 57 360 9.0 17.0 0.00 0.00 0.00 61 1034.1
20260508001042 56 360 10.0 17.0 0.00 0.00 0.00 62 1034.0
20260508000542 56 360 9.0 14.0 0.00 0.00 0.00 62 1034.1
20260508000055 56 360 9.0 16.0 0.00 0.00 0.00 63 1034.1
20260507235542 56 360 7.0 16.0 0.00 0.00 0.00 64 1034.2
20260507235041 55 360 7.0 16.0 0.00 0.00 0.00 65 1034.2
20260507234620 55 360 8.0 13.0 0.00 0.00 0.00 66 1034.1
20260507234044 54 360 5.0 11.0 0.00 0.00 0.00 68 1033.9
20260507233541 54 360 6.0 11.0 0.00 0.00 0.00 69 1033.8
20260507233053 53 360 4.0 12.0 0.00 0.00 0.00 70 1033.8
20260507232542 53 360 6.0 12.0 0.00 0.00 0.00 71 1033.8
20260507232043 52 360 5.0 10.0 0.00 0.00 0.00 71 1033.7
20260507231548 52 360 3.0 8.0 0.00 0.00 0.00 73 1033.5
20260507231040 51 360 4.0 8.0 0.00 0.00 0.00 74 1033.6
20260507230544 51 360 3.0 6.0 0.00 0.00 0.00 75 1033.5
20260507230055 50 360 3.0 6.0 0.00 0.00 0.00 76 1033.4
20260507225544 50 360 3.0 6.0 0.00 0.00 0.00 76 1033.4
20260507225041 49 360 3.0 6.0 0.00 0.00 0.00 76 1033.3
20260507224553 49 360 3.0 5.0 0.00 0.00 0.00 77 1033.2
20260507224044 49 360 2.0 5.0 0.00 0.00 0.00 78 1033.4
20260507223543 48 360 2.0 5.0 0.00 0.00 0.00 79 1033.3
20260507223053 48 360 3.0 5.0 0.00 0.00 0.00 79 1033.3
20260507222544 47 360 2.0 5.0 0.00 0.00 0.00 79 1033.3
20260507222044 47 360 2.0 5.0 0.00 0.00 0.00 79 1033.2
20260507221553 47 360 3.0 4.0 0.00 0.00 0.00 79 1033.2
20260507221042 47 360 2.0 4.0 0.00 0.00 0.00 79 1033.2
20260507220541 47 360 2.0 4.0 0.00 0.00 0.00 79 1033.1
20260507220053 47 360 2.0 4.0 0.00 0.00 0.00 79 1033.0
20260507215542 47 360 2.0 4.0 0.00 0.00 0.00 79 1033.0
20260507215041 47 360 2.0 3.0 0.00 0.00 0.00 79 1033.0
20260507214555 47 360 2.0 3.0 0.00 0.00 0.00 79 1032.9
20260507214040 47 360 2.0 4.0 0.00 0.00 0.00 79 1032.9
20260507213543 47 360 1.0 4.0 0.00 0.00 0.00 79 1032.9
20260507213057 47 360 1.0 3.0 0.00 0.00 0.00 79 1032.9
20260507212542 47 360 2.0 3.0 0.00 0.00 0.00 79 1032.8
20260507212043 47 360 1.0 3.0 0.00 0.00 0.00 79 1032.8
20260507211553 47 360 2.0 3.0 0.00 0.00 0.00 79 1032.7
20260507211042 47 360 1.0 4.0 0.00 0.00 0.00 79 1032.8
20260507210542 47 360 1.0 4.0 0.00 0.00 0.00 79 1032.8
20260507210050 47 360 2.0 4.0 0.00 0.00 0.00 79 1032.6
20260507205544 47 360 2.0 4.0 0.00 0.00 0.00 78 1032.7
20260507205039 47 360 2.0 4.0 0.00 0.00 0.00 78 1032.7
20260507204551 48 360 2.0 4.0 0.00 0.00 0.00 78 1032.8
20260507204041 48 360 2.0 4.0 0.00 0.00 0.00 78 1032.7
20260507203542 48 360 1.0 5.0 0.00 0.00 0.00 78 1032.7
20260507203051 48 360 1.0 5.0 0.00 0.00 0.00 78 1032.6
20260507202540 48 360 2.0 4.0 0.00 0.00 0.00 78 1032.7
20260507202040 48 360 2.0 4.0 0.00 0.00 0.00 78 1032.6
20260507201553 48 360 2.0 4.0 0.00 0.00 0.00 78 1032.6
20260507201041 48 360 2.0 4.0 0.00 0.00 0.00 77 1032.5
20260507200541 48 360 2.0 4.0 0.00 0.00 0.00 77 1032.5
20260507200051 48 360 2.0 4.0 0.00 0.00 0.00 77 1032.5
20260507195543 48 360 2.0 5.0 0.00 0.00 0.00 77 1032.5
20260507195041 48 360 2.0 5.0 0.00 0.00 0.00 77 1032.5
20260507194548 49 360 2.0 5.0 0.00 0.00 0.00 77 1032.5
20260507194041 49 360 2.0 5.0 0.00 0.00 0.00 77 1032.5
20260507193540 48 360 2.0 5.0 0.00 0.00 0.00 77 1032.5
20260507193049 49 360 2.0 3.0 0.00 0.00 0.00 77 1032.5
20260507192544 49 360 1.0 4.0 0.00 0.00 0.00 76 1032.5
20260507192040 49 360 2.0 4.0 0.00 0.00 0.00 76 1032.5
20260507191602 49 360 1.0 4.0 0.00 0.00 0.00 76 1032.4
20260507191043 49 360 1.0 4.0 0.00 0.00 0.00 76 1032.4
20260507190543 49 360 1.0 4.0 0.00 0.00 0.00 76 1032.3
20260507190052 49 0 0.0 1.0 0.00 0.00 0.00 76 1032.3
20260507185857 49 0 0.0 3.0 0.00 0.00 0.00 75 1032.3
20260507183539 49 360 1.0 2.0 0.00 0.00 0.00 74 1032.3
20260507183054 50 0 0.0 1.0 0.00 0.00 0.00 73 1032.2
20260507182540 50 0 0.0 3.0 0.00 0.00 0.00 73 1032.2
20260507182041 50 360 0.0 4.0 0.00 0.00 0.00 72 1032.2
20260507181556 51 360 1.0 4.0 0.00 0.00 0.00 72 1032.2
20260507181042 51 360 2.0 4.0 0.00 0.00 0.00 72 1032.0
20260507180547 51 360 2.0 5.0 0.00 0.00 0.00 72 1032.0
20260507180055 51 360 2.0 5.0 0.00 0.00 0.00 71 1032.0
20260507175543 52 360 2.0 5.0 0.00 0.00 0.00 71 1032.0
20260507175043 52 360 2.0 5.0 0.00 0.00 0.00 71 1032.0
20260507174552 52 360 2.0 5.0 0.00 0.00 0.00 70 1032.0
20260507174041 52 360 3.0 5.0 0.00 0.00 0.00 70 1031.9
20260507173544 52 360 3.0 6.0 0.00 0.00 0.00 70 1031.9
20260507173117 52 360 3.0 6.0 0.00 0.00 0.00 69 1032.0
20260507172620 53 360 3.0 6.0 0.00 0.00 0.00 69 1032.0
20260507172043 53 360 3.0 6.0 0.00 0.00 0.00 69 1032.0
20260507171557 53 360 3.0 6.0 0.00 0.00 0.00 69 1032.1
20260507171042 53 360 3.0 6.0 0.00 0.00 0.00 69 1032.1
20260507170542 53 360 3.0 8.0 0.00 0.00 0.00 69 1032.1
20260507170054 53 360 4.0 8.0 0.00 0.00 0.00 69 1032.2
20260507165541 53 360 2.0 6.0 0.00 0.00 0.00 69 1032.1
20260507165043 53 360 3.0 6.0 0.00 0.00 0.00 68 1032.2
20260507164548 53 360 3.0 6.0 0.00 0.00 0.00 68 1032.2
20260507164041 53 360 3.0 6.0 0.00 0.00 0.00 68 1032.2
20260507163544 53 360 3.0 6.0 0.00 0.00 0.00 68 1032.1
20260507163051 54 360 3.0 6.0 0.00 0.00 0.00 68 1032.2
20260507162541 54 360 4.0 8.0 0.00 0.00 0.00 67 1032.3
20260507162043 54 360 3.0 8.0 0.00 0.00 0.00 67 1032.2
20260507161554 54 360 3.0 8.0 0.00 0.00 0.00 67 1032.3
20260507161043 54 360 3.0 8.0 0.00 0.00 0.00 67 1032.3
20260507160541 54 360 3.0 6.0 0.00 0.00 0.00 66 1032.2
20260507160052 54 360 4.0 9.0 0.00 0.00 0.00 66 1032.3
20260507155543 55 360 4.0 9.0 0.00 0.00 0.00 66 1032.4
20260507155046 55 360 4.0 9.0 0.00 0.00 0.00 66 1032.3
20260507154552 55 360 5.0 10.0 0.00 0.00 0.00 66 1032.4
20260507154043 55 360 4.0 10.0 0.00 0.00 0.00 65 1032.3
20260507153542 55 360 4.0 8.0 0.00 0.00 0.00 65 1032.3
20260507153103 55 360 4.0 8.0 0.00 0.00 0.00 65 1032.4
20260507152542 55 360 3.0 6.0 0.00 0.00 0.00 65 1032.5
20260507152044 55 360 3.0 8.0 0.00 0.00 0.00 64 1032.4
20260507151552 55 360 3.0 8.0 0.00 0.00 0.00 64 1032.4
20260507151040 55 360 4.0 8.0 0.00 0.00 0.00 64 1032.5
20260507150543 55 360 4.0 6.0 0.00 0.00 0.00 63 1032.4
20260507150055 55 360 4.0 8.0 0.00 0.00 0.00 63 1032.3
20260507145541 55 360 3.0 8.0 0.00 0.00 0.00 62 1032.2
20260507145043 56 360 3.0 8.0 0.00 0.00 0.00 62 1032.2
20260507144553 56 360 3.0 8.0 0.00 0.00 0.00 62 1032.1
20260507144043 56 360 3.0 8.0 0.00 0.00 0.00 61 1032.1
20260507143540 56 360 4.0 8.0 0.00 0.00 0.00 61 1032.2
20260507143103 56 360 3.0 8.0 0.00 0.00 0.00 61 1032.2
20260507142542 57 360 4.0 10.0 0.00 0.00 0.00 60 1032.3
20260507142040 57 360 5.0 10.0 0.00 0.00 0.00 60 1032.2
20260507141557 57 360 5.0 13.0 0.00 0.00 0.00 60 1032.2
20260507141041 57 360 6.0 13.0 0.00 0.00 0.00 59 1032.1
20260507140543 57 360 5.0 12.0 0.00 0.00 0.00 60 1032.1
20260507140056 57 360 4.0 10.0 0.00 0.00 0.00 60 1032.1
20260507135544 57 360 5.0 10.0 0.00 0.00 0.00 59 1032.1
20260507135042 57 360 4.0 8.0 0.00 0.00 0.00 59 1032.2
20260507134550 57 360 3.0 8.0 0.00 0.00 0.00 59 1032.2
20260507134040 57 360 4.0 8.0 0.00 0.00 0.00 59 1032.2
20260507133541 57 360 4.0 8.0 0.00 0.00 0.00 59 1032.3
20260507133059 57 360 3.0 9.0 0.00 0.00 0.00 59 1032.2
20260507132543 57 360 4.0 9.0 0.00 0.00 0.00 59 1032.3
20260507132044 58 360 4.0 10.0 0.00 0.00 0.00 59 1032.3
20260507131552 58 360 4.0 10.0 0.00 0.00 0.00 59 1032.2
20260507131042 58 360 3.0 8.0 0.00 0.00 0.00 59 1032.3
20260507130542 58 360 4.0 8.0 0.00 0.00 0.00 59 1032.3
20260507130104 58 360 4.0 8.0 0.00 0.00 0.00 59 1032.3
20260507125540 58 360 3.0 8.0 0.00 0.00 0.00 59 1032.3
20260507125040 58 360 4.0 6.0 0.00 0.00 0.00 58 1032.3
20260507124556 58 360 4.0 9.0 0.00 0.00 0.00 59 1032.1
20260507124042 58 360 3.0 9.0 0.00 0.00 0.00 58 1032.2
20260507123543 58 360 3.0 6.0 0.00 0.00 0.00 58 1032.2
20260507123057 58 360 3.0 6.0 0.00 0.00 0.00 58 1032.2
20260507122542 58 360 3.0 6.0 0.00 0.00 0.00 58 1032.0
20260507122041 58 360 3.0 8.0 0.00 0.00 0.00 57 1032.0
20260507121556 58 360 4.0 8.0 0.00 0.00 0.00 57 1032.0
20260507121043 59 360 4.0 8.0 0.00 0.00 0.00 57 1031.9
20260507120540 59 360 3.0 8.0 0.00 0.00 0.00 57 1031.8
20260507120047 59 360 4.0 9.0 0.00 0.00 0.00 56 1031.7
20260507115541 59 360 4.0 9.0 0.00 0.00 0.00 56 1031.7
20260507115040 59 360 4.0 9.0 0.00 0.00 0.00 56 1031.7
20260507114550 59 360 4.0 8.0 0.00 0.00 0.00 56 1031.6
20260507114040 59 360 3.0 6.0 0.00 0.00 0.00 55 1031.6
20260507113544 59 360 3.0 6.0 0.00 0.00 0.00 55 1031.6
20260507113052 59 360 3.0 8.0 0.00 0.00 0.00 55 1031.6
20260507112542 60 360 3.0 8.0 0.00 0.00 0.00 54 1031.6
20260507112045 60 360 4.0 6.0 0.00 0.00 0.00 54 1031.6
20260507111549 59 360 3.0 5.0 0.00 0.00 0.00 55 1031.6
20260507111042 60 360 3.0 5.0 0.00 0.00 0.00 54 1031.6
20260507110543 60 360 2.0 4.0 0.00 0.00 0.00 54 1031.6
20260507110101 60 360 2.0 5.0 0.00 0.00 0.00 54 1031.7
20260507105540 60 360 2.0 5.0 0.00 0.00 0.00 53 1031.6
20260507105041 61 360 3.0 5.0 0.00 0.00 0.00 52 1031.6
20260507104552 61 360 3.0 5.0 0.00 0.00 0.00 52 1031.5
20260507104041 61 360 3.0 8.0 0.00 0.00 0.00 52 1031.4
20260507103544 61 360 3.0 8.0 0.00 0.00 0.00 51 1031.4
20260507103112 62 360 3.0 9.0 0.00 0.00 0.00 51 1031.2
20260507102539 62 360 3.0 9.0 0.00 0.00 0.00 51 1031.3
20260507102040 62 360 4.0 10.0 0.00 0.00 0.00 51 1031.3
20260507101550 62 360 4.0 11.0 0.00 0.00 0.00 50 1031.2
20260507101041 63 360 4.0 11.0 0.00 0.00 0.00 50 1031.3
20260507100547 63 360 5.0 11.0 0.00 0.00 0.00 50 1031.1
20260507100103 63 360 4.0 11.0 0.00 0.00 0.00 50 1031.1
20260507095540 63 360 6.0 11.0 0.00 0.00 0.00 50 1031.0
20260507095040 63 360 5.0 11.0 0.00 0.00 0.00 49 1031.0
20260507094550 64 360 6.0 11.0 0.00 0.00 0.00 49 1031.0
20260507094040 64 360 5.0 11.0 0.00 0.00 0.00 49 1030.9
20260507093543 64 360 5.0 11.0 0.00 0.00 0.00 49 1030.9
20260507093053 64 360 5.0 10.0 0.00 0.00 0.00 48 1030.9
20260507092541 65 360 5.0 10.0 0.00 0.00 0.00 48 1030.8
20260507092040 65 360 5.0 10.0 0.00 0.00 0.00 47 1030.8
20260507091548 65 360 5.0 12.0 0.00 0.00 0.00 47 1030.7
20260507091041 65 360 5.0 13.0 0.00 0.00 0.00 47 1030.7
20260507090541 65 360 7.0 13.0 0.00 0.00 0.00 48 1030.6
20260507090055 65 360 6.0 13.0 0.00 0.00 0.00 48 1030.6
20260507085540 66 360 6.0 12.0 0.00 0.00 0.00 49 1030.4
20260507085043 66 360 5.0 11.0 0.00 0.00 0.00 48 1030.4
20260507084603 66 360 7.0 14.0 0.00 0.00 0.00 48 1030.4
20260507084042 66 360 6.0 14.0 0.00 0.00 0.00 47 1030.3
20260507083540 67 360 5.0 13.0 0.00 0.00 0.00 46 1030.3
20260507083051 67 360 6.0 14.0 0.00 0.00 0.00 46 1030.3
20260507082544 67 360 6.0 14.0 0.00 0.00 0.00 44 1030.2
20260507082041 67 360 6.0 14.0 0.00 0.00 0.00 44 1030.2
20260507081547 68 360 6.0 13.0 0.00 0.00 0.00 46 1030.3
20260507081040 67 360 7.0 13.0 0.00 0.00 0.00 46 1030.2
20260507080547 67 360 5.0 13.0 0.00 0.00 0.00 46 1030.2
20260507080056 67 360 7.0 13.0 0.00 0.00 0.00 47 1030.2
20260507075541 67 360 7.0 13.0 0.00 0.00 0.00 48 1030.2
20260507075044 67 360 8.0 15.0 0.00 0.00 0.00 49 1030.2
20260507074555 67 360 8.0 15.0 0.00 0.00 0.00 50 1030.2
20260507074040 67 360 5.0 11.0 0.00 0.00 0.00 49 1030.2
20260507073544 67 360 6.0 11.0 0.00 0.00 0.00 49 1030.1
20260507073051 67 360 5.0 13.0 0.00 0.00 0.00 48 1030.1
20260507072540 68 360 5.0 13.0 0.00 0.00 0.00 49 1030.0
20260507072042 68 360 6.0 13.0 0.00 0.00 0.00 50 1030.1
20260507071549 67 360 5.0 14.0 0.00 0.00 0.00 52 1030.3
20260507071040 67 360 6.0 14.0 0.00 0.00 0.00 52 1030.3
20260507070541 68 360 8.0 12.0 0.00 0.00 0.00 51 1030.2
20260507065542 67 360 6.0 11.0 0.00 0.00 0.00 56 1030.2
20260507065039 66 360 6.0 14.0 0.00 0.00 0.00 56 1030.2
20260507064553 66 360 7.0 14.0 0.00 0.00 0.00 57 1030.2
20260507064043 66 360 8.0 14.0 0.00 0.00 0.00 58 1030.3
20260507063544 66 360 8.0 16.0 0.00 0.00 0.00 58 1030.3
20260507063047 67 360 8.0 16.0 0.00 0.00 0.00 57 1030.2
20260507062545 67 360 8.0 14.0 0.00 0.00 0.00 53 1030.2
20260507062043 67 360 7.0 13.0 0.00 0.00 0.00 52 1030.1
20260507061550 67 360 7.0 13.0 0.00 0.00 0.00 52 1030.1
20260507061043 68 360 5.0 11.0 0.00 0.00 0.00 50 1030.1
20260507060542 68 360 5.0 12.0 0.00 0.00 0.00 50 1030.1
20260507060049 68 360 6.0 13.0 0.00 0.00 0.00 50 1030.1
20260507055543 69 360 6.0 13.0 0.00 0.00 0.00 49 1030.1
20260507055042 68 360 6.0 13.0 0.00 0.00 0.00 50 1030.1
20260507054606 68 360 5.0 13.0 0.00 0.00 0.00 51 1030.1
20260507054040 67 360 6.0 14.0 0.00 0.00 0.00 51 1030.3
20260507053545 67 360 8.0 14.0 0.00 0.00 0.00 51 1030.3
20260507053056 67 360 6.0 13.0 0.00 0.00 0.00 51 1030.3
20260507052543 68 360 6.0 12.0 0.00 0.00 0.00 51 1030.2